Dansville, NY

4:24 PM EDT on April 26, 2017 (GMT -0400)
Dansville Municipal

Weather History for KDSV - September, 2012

Change the Weather History Date:

Thursday, September 27, 2012

  Actual Average Record
Temperature  
Mean Temperature 55 °F -  
Max Temperature 66 °F 68 °F 87 °F (1959)
Min Temperature 44 °F 46 °F 29 °F (1957)
Degree Days  
Heating Degree Days 10    
Growing Degree Days 5 (Base 50)    
Moisture  
Dew Point 49 °F    
Average Humidity 81    
Maximum Humidity 100    
Minimum Humidity 56    
Precipitation  
Precipitation 0.00 in - - ()
Sea Level Pressure  
Sea Level Pressure 30.23 in    
Wind  
Wind Speed 2 mph (North)    
Max Wind Speed 6 mph    
Max Gust Speed -    
Visibility 10 miles    
Events      
Averages and records for this station are not official NWS values.
T = Trace of Precipitation, MM = Missing Value Source: NWS Daily Summary

Daily Weather History Graph

Daily Weather History Graph

Search for Another Location

Airport or City:

Trip Planner

Search our weather history database for the weather conditions in past years. The results will help you decide how hot, cold, wet, or windy it might be!

Date:

Astronomy

Sep. 27, 2012 Rise Set
Actual Time 7:04 AM EDT 6:58 PM EDT
Civil Twilight 6:36 AM EDT 7:26 PM EDT
Nautical Twilight 6:03 AM EDT 7:59 PM EDT
Astronomical Twilight 5:29 AM EDT 8:32 PM EDT
Moon 5:30 PM EDT (9/27) 4:28 AM EDT (9/27)
Length of Visible Light 12h 50m
Length of Day
11h 54m
Waxing Gibbous, 94% of the Moon is Illuminated
Sep 27
Waxing Gibbous
Sep 29
Full
Oct 8
Last Quarter
Oct 15
New
Oct 21
First Quarter

Hourly Weather History & Observations

Time (EDT) Temp. Dew Point Humidity Pressure Visibility Wind Dir Wind Speed Gust Speed Precip Events Conditions
12:54 AM 55.9 °F 55.9 °F 100% 30.17 in 10.0 mi NW 4.6 mph - N/A   Overcast
1:54 AM 54.0 °F 54.0 °F 100% 30.19 in 10.0 mi Calm Calm - N/A   Overcast
3:54 AM 48.0 °F 48.0 °F 100% 30.20 in 10.0 mi Calm Calm - N/A   Mostly Cloudy
4:54 AM 46.9 °F 46.9 °F 100% 30.22 in 10.0 mi Calm Calm - N/A   Clear
5:54 AM 45.0 °F 45.0 °F 100% 30.25 in 10.0 mi Calm Calm - N/A   Clear
6:54 AM 44.1 °F 44.1 °F 100% 30.27 in 10.0 mi Calm Calm - N/A   Clear
7:54 AM 45.0 °F 45.0 °F 100% 30.28 in 10.0 mi Calm Calm - N/A   Clear
8:54 AM 50.0 °F 48.0 °F 93% 30.29 in 10.0 mi SSE 5.8 mph - N/A   Clear
9:54 AM 54.0 °F 48.0 °F 80% 30.28 in 10.0 mi Calm Calm - N/A   Clear
10:54 AM 57.9 °F 50.0 °F 75% 30.29 in 10.0 mi NW 3.5 mph - N/A   Clear
11:54 AM 61.0 °F 51.1 °F 70% 30.27 in 10.0 mi NW 4.6 mph - N/A   Clear
12:54 PM 62.1 °F 50.0 °F 65% 30.25 in 10.0 mi Variable 3.5 mph - N/A   Scattered Clouds
1:54 PM 64.9 °F 50.0 °F 58% 30.24 in 10.0 mi Calm Calm - N/A   Mostly Cloudy
2:54 PM 64.0 °F 48.0 °F 56% 30.22 in 10.0 mi Calm Calm - N/A   Scattered Clouds
3:54 PM 66.0 °F 50.0 °F 56% 30.21 in 10.0 mi Variable 3.5 mph - N/A   Clear
4:54 PM 64.9 °F 48.9 °F 56% 30.20 in 10.0 mi North 4.6 mph - N/A   Clear
5:54 PM 62.1 °F 50.0 °F 65% 30.21 in 10.0 mi ENE 3.5 mph - N/A   Clear
6:54 PM 59.0 °F 48.9 °F 69% 30.20 in 10.0 mi Calm Calm - N/A   Clear
7:54 PM 57.0 °F 50.0 °F 77% 30.22 in 10.0 mi Variable 4.6 mph - N/A   Mostly Cloudy
8:54 PM 55.9 °F 45.0 °F 67% 30.22 in 10.0 mi Calm Calm - N/A   Partly Cloudy
9:54 PM 52.0 °F 48.9 °F 89% 30.22 in 10.0 mi Calm Calm - N/A   Partly Cloudy
10:54 PM 50.0 °F 48.9 °F 96% 30.22 in 10.0 mi Calm Calm - N/A   Clear
11:54 PM 48.0 °F 48.0 °F 100% 30.22 in 10.0 mi Calm Calm - N/A   Clear